Home   Weather   Gliwice   Past weeks

Flag for Poland Past Weather in Gliwice, Poland — Yesterday and Last 2 Weeks

Now
70 °F

Sunny.


Feels Like: 70 °F
Forecast: 48 / 78 °F
Wind: 6 mph from Northeast

Location: Katowice Airport

Current Time: Aug 31, 2016 at 6:19:04 PM

Latest Report: Aug 31, 2016 at 6:00 PM


Visibility: 10 mi

Pressure: 30.21 "Hg

Humidity: 46%

Dew Point: 48 °F

Location of GliwiceLocation

Past Weather in Gliwice — Graph

°F

Gliwice Temperature Yesterday

Maximum temperature yesterday: 70 °F (at 2:30 PM)
Minimum temperature yesterday: 46 °F (at 11:30 PM)
Average temperature yesterday: 62 °F

High & Low Weather Summary for the Past Weeks

 TemperatureHumidityPressure
High82 °F (Aug 27, 4:00 PM)100% (Aug 17, 7:00 AM)30.33 "Hg (Aug 17, 7:00 AM)
Low39 °F (Aug 31, 5:30 AM)37% (Aug 26, 4:30 PM)29.83 "Hg (Aug 18, 4:30 PM)
Average64 °F75%30.12 "Hg
* Reported Aug 16 5:00 PM — Aug 31 5:00 PM, Gliwice, Weather by CustomWeather, © 2016

Note: Actual official high and low records may vary slightly from our data, if they occured in-between our weather recording intervals... More about our weather records

Advertising

Gliwice Weather History for the Previous 24 Hours

Scroll right to see more
 ConditionsComfort  
Time TempWeatherWind HumidityBarometerVisibility
5:00 PM
Wed, Aug 31
72 °FSunny.5 mph41%30.21 "Hg10 mi
4:30 PM72 °FPassing clouds.6 mph41%30.24 "HgN/A
4:00 PM72 °FPassing clouds.7 mph41%30.24 "HgN/A
3:30 PM72 °FPassing clouds.5 mph44%30.24 "HgN/A
3:00 PM72 °FSunny.5 mph41%30.24 "Hg10 mi
2:30 PM70 °FPassing clouds.7 mph43%30.27 "HgN/A
2:00 PM70 °FPassing clouds.6 mph43%30.27 "HgN/A
1:30 PM70 °FPassing clouds.7 mph43%30.27 "HgN/A
1:00 PM68 °FPassing clouds.7 mph49%30.27 "HgN/A
12:30 PM68 °FPassing clouds.6 mph49%30.27 "HgN/A
12:00 PM68 °FPassing clouds.5 mph53%30.30 "HgN/A
11:30 AM66 °FPassing clouds.6 mph46%30.30 "HgN/A
11:00 AM64 °FSunny.7 mph49%30.30 "Hg10 mi
10:30 AM64 °FPassing clouds.6 mph52%30.30 "HgN/A
10:00 AM64 °FPassing clouds.5 mph56%30.30 "HgN/A
9:30 AM63 °FPassing clouds.5 mph59%30.30 "HgN/A
9:00 AM61 °FPassing clouds.3 mph63%30.30 "HgN/A
8:30 AM59 °FSunny.2 mph72%30.30 "Hg10 mi
8:00 AM54 °FSunny.1 mph82%30.30 "Hg10 mi
7:30 AM46 °FSunny.1 mph93%30.30 "Hg10 mi
7:00 AM43 °FSunny.2 mph93%30.30 "Hg10 mi
6:30 AM41 °FClear.2 mph93%30.30 "Hg10 mi
6:00 AM39 °FClear.2 mph100%30.30 "Hg10 mi
5:30 AM39 °FClear.2 mph100%30.30 "Hg10 mi
5:00 AM41 °FClear.2 mph93%30.30 "Hg10 mi
4:30 AM41 °FClear.2 mph93%30.27 "Hg10 mi
4:00 AM41 °FClear.1 mph100%30.30 "Hg10 mi
3:30 AM41 °FClear.2 mph100%30.30 "Hg10 mi
3:00 AM43 °FClear.2 mph93%30.30 "Hg10 mi
2:30 AM43 °FClear.2 mph93%30.30 "Hg10 mi
2:00 AM45 °FClear.2 mph87%30.30 "Hg10 mi
1:30 AM45 °FClear.1 mph93%30.30 "Hg10 mi
1:00 AM45 °FClear.2 mph93%30.30 "Hg10 mi
12:30 AM45 °FClear.1 mph93%30.30 "Hg10 mi
12:00 AM46 °FClear.1 mph93%30.30 "Hg10 mi
11:30 PM
Tue, Aug 30
46 °FClear.1 mph93%30.27 "Hg10 mi
11:00 PM48 °FClear.1 mph87%30.27 "Hg10 mi
10:30 PM50 °FClear.1 mph88%30.27 "Hg10 mi
10:00 PM48 °FClear.1 mph87%30.27 "Hg10 mi
9:30 PM50 °FClear.2 mph88%30.27 "Hg10 mi
9:00 PM52 °FClear.1 mph82%30.27 "Hg10 mi
8:30 PM54 °FSunny.2 mph77%30.24 "Hg10 mi
8:00 PM61 °FSunny.3 mph52%30.24 "Hg10 mi
7:30 PM63 °FSunny.5 mph49%30.24 "Hg10 mi
7:00 PM66 °FSunny.7 mph43%30.21 "Hg10 mi
6:30 PM68 °FSunny.9 mph40%30.21 "Hg10 mi
6:00 PM68 °FPassing clouds.10 mph40%30.21 "HgN/A
Weather by CustomWeather, © 2016

See weather overviewHow to use our weather pages